Regional Weather Roundup
Issued by NWS

Home | Current Version | Previous Version | Graphics & Text | Print | Product List | Glossary On
Versions: 1 2 3 4 5 6 7 8 9 10 11 12 13 14 15 16 17 18 19 20 21 22 23 24 25 26 27
000
ASUS45 KBOU 141910
RWRCO

WEATHER ROUNDUP FOR COLORADO
NATIONAL WEATHER SERVICE DENVER/BOULDER CO
1200 PM MST THU DEC 14 2017

NOTE: "FAIR" INDICATES FEW OR NO CLOUDS BELOW 12000 FEET WITH NO
SIGNIFICANT WEATHER AND/OR OBSTRUCTIONS TO VISIBILITY.

COZ001>005-013-030-031-142000-
...NORTHWEST COLORADO...

CITY           SKY/WX    TMP DP  RH WIND       PRES   REMARKS
CRAIG          FAIR      32  18  56 NW16G22   30.32F WCI  21
HAYDEN         FAIR      31  22  69 W3        30.32F
MEEKER         FAIR      32  18  56 NE14G22   30.32F WCI  22
RABBIT EARS PA CLOUDY    14  12  92 NW9G17    30.19F FOG     WCI   2
STEAMBOAT SPGS FAIR      28  19  69 S7        30.28S WCI  20
WALDEN         CLOUDY    25  10  54 NW15G22   30.25S WCI  12
$$

COZ006>008-011-142000-
...WEST CENTRAL VALLEYS...

CITY           SKY/WX    TMP DP  RH WIND       PRES   REMARKS
GRAND JUNCTION FAIR      46  15  28 N18G24    30.28F
MONTROSE       PTSUNNY   38  20  48 W6        30.29F
EAGLE          FAIR      33  24  69 W3        30.28F
RIFLE          FAIR      42  16  34 NW16      30.27F
DELTA          FAIR      45  26  47 CALM      30.25F
NUCLA          FAIR      43  19  39 NW7       30.26F
$$

COZ017>023-064>068-142000-
...SOUTHWEST COLORADO...

CITY           SKY/WX    TMP DP  RH WIND       PRES   REMARKS
DURANGO        FAIR      40  24  53 SE15G23   30.14R
CORTEZ         FAIR      49  21  33 N13G21    30.13F
PAGOSA SPRINGS FAIR      38  22  52 S3        30.14S
TELLURIDE      FAIR      31  20  63 W12       30.20S WCI  22
WOLF CREEK PAS CLOUDY    19  19 100 NW5       30.20S FOG     WCI  13
$$

COZ009-010-012-014-032>034-037-058>063-142000-
...CENTRAL COLORADO...

CITY           SKY/WX    TMP DP  RH WIND       PRES   REMARKS
ASPEN          FAIR      32  21  64 SW7       30.21F WCI  26
BUENA VISTA    FAIR      29  20  69 S3        30.15F
COPPER MTN     NOT AVBL
BERTHOUD PASS  CLOUDY     5  -6  61 N25G38    30.09F WCI -18
COTTONWOOD PAS FAIR      30  27  86 CALM      30.13F
GUNNISON       FAIR      36  22  56 SW10      30.18F
KREMMLING      PTSUNNY   34  19  55 CALM      30.26F
LEADVILLE      FLURRIES  24  12  60 N10G17    30.16F WCI  14
MONARCH PASS     N/A     18  14  86 W18       30.24F WCI   2
SALIDA         FAIR      33  21  60 CALM      30.23F
SUNLIGHT       FAIR     N/A N/A N/A NW3       30.26F
WILKERSON PASS FAIR     N/A N/A N/A N8G16     30.15R
$$

COZ069>075-142000-
...SAN LUIS VALLEY/SANGRE DE CRISTO MOUNTAINS...

CITY           SKY/WX    TMP DP  RH WIND       PRES   REMARKS
ALAMOSA        CLOUDY    30  24  78 W6        30.16F WCI  24
DEL NORTE      PTSUNNY   31  23  74 CALM      30.17F
LA VETA PASS   LGT SNOW  21  16  79 NW5         N/A  WCI  15
SAGUACHE       FAIR      34  27  75 S9        30.15F WCI  26
$$

COZ035-036-038>040-142000-
...NORTHERN COLORADO FRONT RANGE...

CITY           SKY/WX    TMP DP  RH WIND       PRES   REMARKS
DENVER INTL AP PTSUNNY   37  23  56 NW16      30.20F
DMNS CITY PARK NOT AVBL
AURORA         PTSUNNY   35  24  66 N12       30.20F WCI  26
FRONT RANGE AP PTSUNNY   39  27  60 NW17G24   30.20
ERIE MUNI ARPT PTSUNNY   39  23  51 N8        30.26F
BOULDER MUN AP PTSUNNY   36  23  60 CALM      30.20F
CENTENNIAL     CLOUDY    34  23  64 N9        30.20F WCI  27
BROOMFIELD     PTSUNNY   36  21  55 N5        30.21F
FORT COLLINS   FAIR      40  21  46 N28       30.20F
LONGMONT       PTSUNNY   44  24  45 N8        30.23S
$$

COZ041-046-047-076>085-087-088-142000-
...PIKES PEAK/PALMER DIVIDE AND SOUTHERN FOOTHILLS...

CITY           SKY/WX    TMP DP  RH WIND       PRES   REMARKS
COLO. SPRINGS  CLOUDY    33  23  66 S5        30.20F WCI  29
A. F. ACADEMY  FLURRIES  31  20  63 NW7       30.18F WCI  24
SCHRIEVER AFB  PTSUNNY   33  21  60 N7        30.20F WCI  27
CHEYENNE MTN   LGT RAIN  28  25  89 CALM      30.13F
ELLICOTT         N/A    N/A N/A N/A NW8       30.18F
FALCON         CLOUDY    32  18  55 NW5       30.19F WCI  27
FORT CARSON    FLURRIES  32  27  81 S5        30.19F WCI  28
LIMON          CLOUDY    35  24  64 NW23G30   30.18F WCI  23
MONUMENT HILL  CLOUDY    28  19  69 N9        30.20F WCI  20
CANON CITY     FAIR      37  30  75 E3        30.20F
WALSENBURG     CLOUDY    34  27  75 NE3       30.21F
TRINIDAD       CLOUDY    33  29  85 VRB3      30.22F
$$

COZ042>045-048>051-090-091-142000-
...NORTHEAST COLORADO...

CITY           SKY/WX    TMP DP  RH WIND       PRES   REMARKS
GREELEY ARPT   CLOUDY    37  20  50 N22       30.23F
AKRON          CLOUDY    35  21  56 N30G40    30.18S WCI  22
BURLINGTON     CLOUDY    40  23  50 N22G32    30.16F
WRAY           FAIR      43  16  33 N36G41    30.17R
YUMA           MOCLDY    36  18  48 N30G43    30.17F
STERLING       CLOUDY    37  21  52 N21G28    30.19S
HOLYOKE        FAIR      43  21  42 N28G36    30.17R
FORT MORGAN    PTSUNNY   35  22  58 N22       30.22F WCI  24
$$

COZ086-089-092>099-142000-
...SOUTHEAST COLORADO...

CITY           SKY/WX    TMP DP  RH WIND       PRES   REMARKS
PUEBLO         CLOUDY    40  28  62 W6        30.21F
LA JUNTA       CLOUDY    42  30  62 NW13      30.21F
LAMAR          CLOUDY    42  28  57 N15       30.19F
SPRINGFIELD      N/A     40  28  62 NW16      30.18F
$$




USA.gov is the U.S. government's official web portal to all federal, state and local government web resources and services.